Flag for United Kingdom Weather past 2 weeks in Birmingham, England, United Kingdom

Now
64 °F

Passing clouds.


Feels Like: 64 °F
Forecast: 54 / 59 °F
Wind: 6 mph from North

Location: Birmingham / Airport

Current Time: Aug 30, 2015 at 1:13:26 PM

Latest Report: Aug 30, 2015 at 12:50 PM


Visibility: N/A

Pressure: 30.09 "Hg

Humidity: 68%

Dew point: 54 °F

Location of BirminghamLocation

Historic Weather in Birmingham — Graph

°F

Birmingham temperature yesterday

Maximum temperature yesterday: 70 °F (at 3:50 PM)
Minimum temperature yesterday: 52 °F (at 1:50 AM)
Average temperature yesterday: 61 °F

Past Weeks' High & Low Weather Summary

 TemperatureHumidityPressure
High82 °F (Aug 22, 3:50 PM)100% (Aug 19, 6:20 AM)30.09 "Hg (Aug 19, 6:20 AM)
Low43 °F (Aug 16, 5:50 AM)43% (Aug 15, 5:50 PM)29.50 "Hg (Aug 23, 11:50 AM)
Average61 °F77%29.87 "Hg
* Reported Aug 15 12:20 PM — Aug 30 12:20 PM, Birmingham, Weather by CustomWeather, © 2015

Note: Actual official high and low records may vary slightly from our data, if they occured in-between our weather recording intervals... More about our weather records

Advertising

Birmingham weather history for previous 24 hours

 ConditionsComfort  
Time TempWeatherWind HumidityBarometerVisibility
12:20 PM
Sun, Aug 30
63 °FSunny.6 mph73%30.09 "Hg10 mi
11:20 AM61 °FPassing clouds.6 mph77%30.07 "HgN/A
10:50 AM61 °FSunny.6 mph77%30.09 "Hg10 mi
10:20 AM61 °FSunny.6 mph77%30.09 "Hg10 mi
9:50 AM59 °FPassing clouds.5 mph82%30.09 "HgN/A
9:20 AM59 °FScattered clouds.6 mph82%30.09 "HgN/A
8:50 AM57 °FScattered clouds.5 mph88%30.09 "HgN/A
8:20 AM57 °FPassing clouds.5 mph88%30.09 "HgN/A
7:50 AM57 °FSunny.2 mph82%30.09 "Hg10 mi
7:20 AM57 °FSunny.3 mph82%30.09 "Hg10 mi
6:50 AM57 °FClear.3 mph82%30.09 "Hg10 mi
6:20 AM55 °FClear.3 mph88%30.07 "Hg10 mi
5:50 AM55 °FClear.3 mph88%30.07 "Hg10 mi
5:20 AM57 °FClear.5 mph82%30.07 "Hg10 mi
4:50 AM57 °FClear.3 mph82%30.09 "Hg10 mi
4:20 AM57 °FClear.2 mph82%30.07 "Hg10 mi
3:50 AM57 °FClear.2 mph82%30.07 "Hg10 mi
3:20 AM57 °FClear.2 mph82%30.07 "Hg10 mi
2:50 AM57 °FClear.2 mph82%30.07 "Hg10 mi
2:20 AM57 °FClear.3 mph82%30.09 "Hg10 mi
1:50 AM57 °FClear.No wind82%30.09 "Hg10 mi
1:20 AM59 °FClear.2 mph77%30.09 "Hg10 mi
12:50 AM59 °FClear.2 mph72%30.09 "Hg10 mi
12:20 AM59 °FClear.2 mph77%30.09 "Hg10 mi
11:50 PM
Sat, Aug 29
59 °FClear.2 mph72%30.09 "Hg10 mi
11:20 PM59 °FClear.2 mph68%30.09 "Hg10 mi
10:50 PM59 °FClear.No wind68%30.09 "Hg10 mi
10:20 PM59 °FClear.3 mph68%30.09 "Hg10 mi
9:50 PM59 °FClear.5 mph68%30.09 "Hg10 mi
9:20 PM61 °FClear.5 mph63%30.09 "Hg10 mi
8:50 PM63 °FSunny.2 mph56%30.07 "Hg10 mi
8:20 PM63 °FSunny.3 mph56%30.07 "Hg10 mi
7:50 PM66 °FSunny.3 mph46%30.07 "Hg10 mi
7:20 PM66 °FPassing clouds.6 mph49%30.07 "HgN/A
6:50 PM66 °FPassing clouds.6 mph52%30.07 "HgN/A
6:20 PM66 °FPassing clouds.7 mph52%30.07 "HgN/A
5:50 PM68 °FPassing clouds.8 mph46%30.07 "HgN/A
5:20 PM68 °FPassing clouds.9 mph46%30.07 "HgN/A
4:50 PM68 °FPassing clouds.7 mph46%30.07 "HgN/A
4:20 PM68 °FPassing clouds.7 mph49%30.07 "HgN/A
3:50 PM70 °FPassing clouds.9 mph46%30.07 "HgN/A
3:20 PM68 °FSunny.10 mph43%30.09 "Hg10 mi
2:50 PM68 °FPassing clouds.8 mph46%30.09 "HgN/A
2:20 PM68 °FScattered clouds.9 mph49%30.09 "HgN/A
1:50 PM68 °FPassing clouds.8 mph49%30.09 "HgN/A
1:20 PM68 °FScattered clouds.10 mph49%30.09 "HgN/A
Weather by CustomWeather, © 2015

See weather overviewHow to use our weather pages